| time (UTC) | temp F | wind direction | speed knots | gust knots | rain 1hr in | rain 24hr in | rain mn in | humidity % | barometer mb |
| 20260510230600 | 66 | 315 | 0.0 | 5.2 | 0.00 | 0.00 | 0.00 | 36 | 1021.9 |
| 20260510225557 | 67 | 316 | 0.0 | 4.3 | 0.00 | 0.00 | 0.00 | 35 | 1021.8 |
| 20260510225057 | 67 | 152 | 0.0 | 9.6 | 0.00 | 0.00 | 0.00 | 34 | 1021.8 |
| 20260510224600 | 67 | 262 | 2.6 | 9.6 | 0.00 | 0.00 | 0.00 | 32 | 1021.8 |
| 20260510224056 | 68 | 300 | 0.9 | 7.8 | 0.00 | 0.00 | 0.00 | 34 | 1021.8 |
| 20260510223555 | 68 | 307 | 1.7 | 7.8 | 0.00 | 0.00 | 0.00 | 34 | 1021.9 |
| 20260510223055 | 68 | 117 | 0.0 | 2.6 | 0.00 | 0.00 | 0.00 | 34 | 1021.7 |
| 20260510222554 | 67 | 32 | 0.0 | 0.0 | 0.00 | 0.00 | 0.00 | 35 | 1021.8 |
| 20260510222057 | 67 | 97 | 0.0 | 0.0 | 0.00 | 0.00 | 0.00 | 34 | 1021.9 |
| 20260510221607 | 67 | 94 | 0.0 | 0.0 | 0.00 | 0.00 | 0.00 | 35 | 1021.8 |
| 20260510221056 | 67 | 115 | 0.0 | 0.0 | 0.00 | 0.00 | 0.00 | 34 | 1021.7 |
| 20260510220554 | 67 | 30 | 0.0 | 7.0 | 0.00 | 0.00 | 0.00 | 35 | 1021.7 |
| 20260510220056 | 68 | 312 | 0.9 | 7.0 | 0.00 | 0.00 | 0.00 | 33 | 1021.7 |
| 20260510215553 | 68 | 293 | 0.0 | 7.0 | 0.00 | 0.00 | 0.00 | 35 | 1021.7 |
| 20260510215057 | 68 | 13 | 0.0 | 9.6 | 0.00 | 0.00 | 0.00 | 34 | 1021.5 |
| 20260510214553 | 67 | 329 | 0.9 | 9.6 | 0.00 | 0.00 | 0.00 | 33 | 1021.5 |
| 20260510214053 | 67 | 252 | 0.0 | 11.3 | 0.00 | 0.00 | 0.00 | 32 | 1021.6 |
| 20260510213553 | 67 | 297 | 3.5 | 11.3 | 0.00 | 0.00 | 0.00 | 31 | 1021.6 |
| 20260510213052 | 67 | 110 | 0.0 | 3.5 | 0.00 | 0.00 | 0.00 | 34 | 1021.5 |
| 20260510212554 | 67 | 100 | 0.0 | 3.5 | 0.00 | 0.00 | 0.00 | 35 | 1021.6 |
| 20260510212054 | 67 | 283 | 0.0 | 3.5 | 0.00 | 0.00 | 0.00 | 35 | 1021.6 |
| 20260510211551 | 67 | 49 | 0.0 | 4.3 | 0.00 | 0.00 | 0.00 | 37 | 1021.6 |
| 20260510211050 | 67 | 57 | 0.9 | 4.3 | 0.00 | 0.00 | 0.00 | 35 | 1021.6 |
| 20260510210551 | 66 | 99 | 0.0 | 3.5 | 0.00 | 0.00 | 0.00 | 40 | 1021.6 |
| 20260510210051 | 66 | 96 | 0.0 | 3.5 | 0.00 | 0.00 | 0.00 | 37 | 1021.6 |
| 20260510205554 | 66 | 6 | 0.0 | 1.7 | 0.00 | 0.00 | 0.00 | 38 | 1021.7 |
| 20260510205053 | 66 | 335 | 0.0 | 7.0 | 0.00 | 0.00 | 0.00 | 35 | 1021.7 |
| 20260510204549 | 66 | 302 | 0.9 | 7.0 | 0.00 | 0.00 | 0.00 | 36 | 1021.7 |
| 20260510204052 | 66 | 308 | 0.9 | 7.8 | 0.00 | 0.00 | 0.00 | 35 | 1021.7 |
| 20260510203548 | 66 | 324 | 2.6 | 7.8 | 0.00 | 0.00 | 0.00 | 35 | 1021.8 |
| 20260510203047 | 66 | 271 | 0.0 | 3.5 | 0.00 | 0.00 | 0.00 | 36 | 1021.9 |
| 20260510202548 | 66 | 315 | 0.0 | 7.0 | 0.00 | 0.00 | 0.00 | 36 | 1021.9 |
| 20260510202046 | 66 | 8 | 0.0 | 0.0 | 0.00 | 0.00 | 0.00 | 36 | 1021.9 |
| 20260510201547 | 66 | 353 | 0.0 | 0.0 | 0.00 | 0.00 | 0.00 | 36 | 1021.9 |
| 20260510201046 | 66 | 346 | 0.0 | 5.2 | 0.00 | 0.00 | 0.00 | 36 | 1022.0 |
| 20260510200546 | 66 | 32 | 0.0 | 5.2 | 0.00 | 0.00 | 0.00 | 36 | 1022.1 |
| 20260510200111 | 66 | 8 | 0.0 | 5.2 | 0.00 | 0.00 | 0.00 | 36 | 1022.1 |
| 20260510195549 | 66 | 267 | 0.0 | 6.1 | 0.00 | 0.00 | 0.00 | 35 | 1022.2 |
| 20260510195045 | 66 | 287 | 0.0 | 4.3 | 0.00 | 0.00 | 0.00 | 36 | 1022.3 |
| 20260510194554 | 66 | 278 | 0.0 | 4.3 | 0.00 | 0.00 | 0.00 | 36 | 1022.4 |
| 20260510194046 | 66 | 316 | 0.0 | 0.9 | 0.00 | 0.00 | 0.00 | 36 | 1022.4 |
| 20260510193547 | 66 | 315 | 0.0 | 2.6 | 0.00 | 0.00 | 0.00 | 36 | 1022.4 |
| 20260510193054 | 66 | 353 | 0.0 | 2.6 | 0.00 | 0.00 | 0.00 | 36 | 1022.4 |
| 20260510192550 | 66 | 279 | 0.0 | 0.9 | 0.00 | 0.00 | 0.00 | 36 | 1022.5 |
| 20260510192044 | 66 | 9 | 0.0 | 7.0 | 0.00 | 0.00 | 0.00 | 36 | 1022.5 |
| 20260510191554 | 66 | 309 | 0.0 | 7.0 | 0.00 | 0.00 | 0.00 | 35 | 1022.4 |
| 20260510191045 | 66 | 297 | 0.0 | 1.7 | 0.00 | 0.00 | 0.00 | 36 | 1022.3 |
| 20260510190547 | 66 | 4 | 0.0 | 0.0 | 0.00 | 0.00 | 0.00 | 35 | 1022.2 |
| 20260510190043 | 66 | 103 | 0.0 | 0.0 | 0.00 | 0.00 | 0.00 | 37 | 1022.2 |
| 20260510185543 | 66 | 275 | 0.0 | 5.2 | 0.00 | 0.00 | 0.00 | 36 | 1022.1 |
| 20260510185044 | 65 | 13 | 0.0 | 5.2 | 0.00 | 0.00 | 0.00 | 35 | 1022.2 |
| 20260510184542 | 66 | 126 | 0.0 | 3.5 | 0.00 | 0.00 | 0.00 | 36 | 1022.1 |
| 20260510184044 | 66 | 260 | 0.0 | 0.0 | 0.00 | 0.00 | 0.00 | 35 | 1022.2 |
| 20260510183542 | 66 | 91 | 0.0 | 2.6 | 0.00 | 0.00 | 0.00 | 38 | 1022.1 |
| 20260510183050 | 65 | 46 | 0.0 | 6.1 | 0.00 | 0.00 | 0.00 | 35 | 1022.1 |
| 20260510182541 | 65 | 273 | 0.0 | 7.8 | 0.00 | 0.00 | 0.00 | 34 | 1022.1 |
| 20260510182041 | 65 | 293 | 1.7 | 7.0 | 0.00 | 0.00 | 0.00 | 34 | 1022.1 |
| 20260510181544 | 65 | 23 | 1.7 | 7.0 | 0.00 | 0.00 | 0.00 | 33 | 1022.4 |
| 20260510181043 | 65 | 288 | 0.9 | 6.1 | 0.00 | 0.00 | 0.00 | 34 | 1022.5 |
| 20260510180541 | 66 | 95 | 0.0 | 1.7 | 0.00 | 0.00 | 0.00 | 33 | 1022.5 |
| 20260510180040 | 66 | 84 | 0.0 | 6.1 | 0.00 | 0.00 | 0.00 | 33 | 1022.3 |
| 20260510175539 | 66 | 293 | 0.0 | 6.1 | 0.00 | 0.00 | 0.00 | 35 | 1022.2 |
| 20260510175040 | 66 | 93 | 1.7 | 6.1 | 0.00 | 0.00 | 0.00 | 33 | 1022.4 |
| 20260510174544 | 66 | 289 | 0.0 | 2.6 | 0.00 | 0.00 | 0.00 | 37 | 1022.3 |
| 20260510174039 | 66 | 347 | 0.0 | 4.3 | 0.00 | 0.00 | 0.00 | 34 | 1022.1 |
| 20260510173538 | 66 | 94 | 0.9 | 4.3 | 0.00 | 0.00 | 0.00 | 34 | 1022.1 |
| 20260510173048 | 66 | 164 | 0.0 | 1.7 | 0.00 | 0.00 | 0.00 | 38 | 1022.2 |
| 20260510172538 | 65 | 260 | 0.0 | 7.0 | 0.00 | 0.00 | 0.00 | 38 | 1022.3 |
| 20260510172040 | 64 | 40 | 1.7 | 7.0 | 0.00 | 0.00 | 0.00 | 35 | 1022.2 |
| 20260510171543 | 65 | 68 | 0.0 | 6.1 | 0.00 | 0.00 | 0.00 | 36 | 1022.3 |
| 20260510171037 | 64 | 345 | 0.9 | 5.2 | 0.00 | 0.00 | 0.00 | 38 | 1022.4 |
| 20260510170539 | 64 | 103 | 0.9 | 5.2 | 0.00 | 0.00 | 0.00 | 36 | 1022.3 |
| 20260510170037 | 64 | 96 | 0.0 | 5.2 | 0.00 | 0.00 | 0.00 | 37 | 1022.2 |
| 20260510165536 | 64 | 278 | 1.7 | 5.2 | 0.00 | 0.00 | 0.00 | 39 | 1022.2 |
| 20260510165036 | 64 | 13 | 0.0 | 5.2 | 0.00 | 0.00 | 0.00 | 36 | 1022.1 |
| 20260510164544 | 63 | 293 | 0.0 | 6.1 | 0.00 | 0.00 | 0.00 | 37 | 1022.1 |
| 20260510164037 | 63 | 287 | 1.7 | 9.6 | 0.00 | 0.00 | 0.00 | 37 | 1021.9 |
| 20260510163535 | 63 | 70 | 0.0 | 9.6 | 0.00 | 0.00 | 0.00 | 37 | 1021.8 |
| 20260510163034 | 64 | 108 | 2.6 | 8.7 | 0.00 | 0.00 | 0.00 | 38 | 1021.8 |
| 20260510162533 | 63 | 336 | 2.6 | 10.4 | 0.00 | 0.00 | 0.00 | 38 | 1021.8 |
| 20260510162033 | 63 | 266 | 0.9 | 9.6 | 0.00 | 0.00 | 0.00 | 38 | 1021.8 |
| 20260510161533 | 64 | 338 | 0.9 | 6.1 | 0.00 | 0.00 | 0.00 | 41 | 1022.0 |
| 20260510161033 | 65 | 274 | 0.0 | 5.2 | 0.00 | 0.00 | 0.00 | 39 | 1022.0 |
| 20260510160535 | 65 | 119 | 0.0 | 0.0 | 0.00 | 0.00 | 0.00 | 40 | 1022.0 |
| 20260510160035 | 64 | 119 | 0.0 | 2.6 | 0.00 | 0.00 | 0.00 | 41 | 1022.0 |
| 20260510155533 | 63 | 318 | 0.0 | 2.6 | 0.00 | 0.00 | 0.00 | 43 | 1022.1 |
| 20260510155033 | 63 | 68 | 0.0 | 4.3 | 0.00 | 0.00 | 0.00 | 41 | 1022.1 |
| 20260510154540 | 63 | 84 | 0.0 | 5.2 | 0.00 | 0.00 | 0.00 | 39 | 1022.1 |
| 20260510154032 | 63 | 299 | 0.9 | 5.2 | 0.00 | 0.00 | 0.00 | 39 | 1022.1 |
| 20260510153531 | 63 | 322 | 0.0 | 5.2 | 0.00 | 0.00 | 0.00 | 42 | 1021.9 |
| 20260510153038 | 62 | 335 | 0.0 | 6.1 | 0.00 | 0.00 | 0.00 | 41 | 1021.8 |
| 20260510152530 | 62 | 335 | 0.9 | 7.0 | 0.00 | 0.00 | 0.00 | 42 | 1021.8 |
| 20260510152030 | 61 | 322 | 1.7 | 5.2 | 0.00 | 0.00 | 0.00 | 41 | 1021.7 |
| 20260510151529 | 61 | 291 | 0.0 | 4.3 | 0.00 | 0.00 | 0.00 | 45 | 1021.7 |
| 20260510151028 | 60 | 335 | 0.9 | 4.3 | 0.00 | 0.00 | 0.00 | 44 | 1021.8 |
| 20260510150528 | 59 | 63 | 0.0 | 1.7 | 0.00 | 0.00 | 0.00 | 48 | 1021.7 |
| 20260510150029 | 59 | 46 | 0.0 | 6.1 | 0.00 | 0.00 | 0.00 | 46 | 1021.7 |
| 20260510145530 | 59 | 47 | 0.9 | 6.1 | 0.00 | 0.00 | 0.00 | 48 | 1021.7 |
| 20260510145031 | 59 | 270 | 0.0 | 0.0 | 0.00 | 0.00 | 0.00 | 48 | 1021.7 |
| 20260510144530 | 59 | 23 | 0.0 | 6.1 | 0.00 | 0.00 | 0.00 | 46 | 1021.8 |
| 20260510144028 | 59 | 342 | 0.0 | 6.1 | 0.00 | 0.00 | 0.00 | 48 | 1021.8 |
| 20260510143527 | 59 | 318 | 0.0 | 4.3 | 0.00 | 0.00 | 0.00 | 47 | 1021.9 |
| 20260510143033 | 58 | 84 | 0.0 | 4.3 | 0.00 | 0.00 | 0.00 | 48 | 1021.8 |
| 20260510142527 | 58 | 99 | 0.0 | 4.3 | 0.00 | 0.00 | 0.00 | 48 | 1021.9 |
| 20260510142026 | 57 | 288 | 0.0 | 4.3 | 0.00 | 0.00 | 0.00 | 48 | 1021.8 |
| 20260510141526 | 57 | 330 | 0.0 | 4.3 | 0.00 | 0.00 | 0.00 | 48 | 1021.7 |
| 20260510141025 | 57 | 313 | 0.0 | 0.9 | 0.00 | 0.00 | 0.00 | 50 | 1021.7 |
| 20260510140524 | 57 | 300 | 0.0 | 0.9 | 0.00 | 0.00 | 0.00 | 49 | 1021.6 |
| 20260510140024 | 57 | 338 | 0.0 | 0.0 | 0.00 | 0.00 | 0.00 | 50 | 1021.6 |
| 20260510135524 | 57 | 271 | 0.0 | 0.0 | 0.00 | 0.00 | 0.00 | 52 | 1021.6 |
| 20260510135023 | 56 | 256 | 0.0 | 0.0 | 0.00 | 0.00 | 0.00 | 52 | 1021.5 |
| 20260510134523 | 56 | 86 | 0.0 | 1.7 | 0.00 | 0.00 | 0.00 | 52 | 1021.4 |
| 20260510134022 | 56 | 77 | 0.0 | 1.7 | 0.00 | 0.00 | 0.00 | 52 | 1021.3 |
| 20260510133521 | 55 | 325 | 0.0 | 1.7 | 0.00 | 0.00 | 0.00 | 52 | 1021.4 |
| 20260510133035 | 55 | 358 | 0.0 | 3.5 | 0.00 | 0.00 | 0.00 | 51 | 1021.3 |
| 20260510132520 | 55 | 319 | 0.0 | 0.0 | 0.00 | 0.00 | 0.00 | 51 | 1021.3 |
| 20260510132020 | 55 | 291 | 0.0 | 4.3 | 0.00 | 0.00 | 0.00 | 51 | 1021.3 |
| 20260510131519 | 55 | 18 | 0.0 | 4.3 | 0.00 | 0.00 | 0.00 | 52 | 1021.2 |
| 20260510131022 | 55 | 308 | 0.0 | 3.5 | 0.00 | 0.00 | 0.00 | 52 | 1021.1 |
| 20260510130519 | 55 | 340 | 0.0 | 3.5 | 0.00 | 0.00 | 0.00 | 51 | 1021.1 |
| 20260510130018 | 55 | 315 | 0.0 | 3.5 | 0.00 | 0.00 | 0.00 | 51 | 1020.9 |
| 20260510125519 | 55 | 92 | 0.0 | 0.0 | 0.00 | 0.00 | 0.00 | 52 | 1020.9 |
| 20260510125016 | 55 | 318 | 0.0 | 0.9 | 0.00 | 0.00 | 0.00 | 51 | 1020.9 |
| 20260510124515 | 55 | 321 | 0.0 | 0.9 | 0.00 | 0.00 | 0.00 | 50 | 1020.8 |
| 20260510124016 | 55 | 316 | 0.0 | 0.0 | 0.00 | 0.00 | 0.00 | 52 | 1020.6 |
| 20260510123514 | 55 | 297 | 0.0 | 0.0 | 0.00 | 0.00 | 0.00 | 51 | 1020.3 |
| 20260510123012 | 55 | 43 | 0.0 | 0.0 | 0.00 | 0.00 | 0.00 | 51 | 1020.1 |
| 20260510122514 | 56 | 15 | 0.0 | 1.7 | 0.00 | 0.00 | 0.00 | 49 | 1020.1 |
| 20260510122010 | 56 | 320 | 0.0 | 4.3 | 0.00 | 0.00 | 0.00 | 49 | 1020.0 |
| 20260510121510 | 55 | 344 | 0.0 | 4.3 | 0.00 | 0.00 | 0.00 | 48 | 1019.9 |
| 20260510121009 | 55 | 331 | 0.0 | 0.0 | 0.00 | 0.00 | 0.00 | 48 | 1019.6 |
| 20260510120508 | 55 | 105 | 0.0 | 2.6 | 0.00 | 0.00 | 0.00 | 48 | 1019.3 |
| 20260510120007 | 55 | 164 | 0.0 | 2.6 | 0.00 | 0.00 | 0.00 | 49 | 1019.2 |
| 20260510115507 | 55 | 335 | 0.0 | 0.9 | 0.00 | 0.00 | 0.00 | 48 | 1019.3 |
| 20260510115007 | 55 | 277 | 0.0 | 3.5 | 0.00 | 0.00 | 0.00 | 48 | 1019.2 |
| 20260510114506 | 55 | 159 | 0.0 | 0.0 | 0.00 | 0.00 | 0.00 | 51 | 1019.1 |
| 20260510114006 | 55 | 11 | 0.0 | 4.3 | 0.00 | 0.00 | 0.00 | 50 | 1019.1 |
| 20260510113504 | 55 | 82 | 0.0 | 4.3 | 0.00 | 0.00 | 0.00 | 50 | 1019.0 |
| 20260510113003 | 55 | 287 | 0.0 | 0.0 | 0.00 | 0.00 | 0.00 | 50 | 1018.9 |
| 20260510112503 | 55 | 326 | 0.0 | 0.0 | 0.00 | 0.00 | 0.00 | 52 | 1018.9 |
| 20260510112002 | 55 | 77 | 0.0 | 0.0 | 0.00 | 0.00 | 0.00 | 52 | 1018.8 |
| 20260510111502 | 55 | 356 | 0.0 | 0.0 | 0.00 | 0.00 | 0.00 | 52 | 1018.9 |
| 20260510111000 | 55 | 20 | 0.0 | 0.0 | 0.00 | 0.00 | 0.00 | 53 | 1018.9 |
| 20260510110600 | 55 | 309 | 0.0 | 3.5 | 0.00 | 0.00 | 0.00 | 53 | 1018.9 |
| 20260510110104 | 56 | 331 | 0.0 | 3.5 | 0.00 | 0.00 | 0.00 | 52 | 1018.7 |
| 20260510105558 | 56 | 307 | 0.0 | 0.9 | 0.00 | 0.01 | 0.00 | 51 | 1018.7 |
| 20260510105058 | 56 | 30 | 0.0 | 0.0 | 0.00 | 0.01 | 0.00 | 50 | 1018.4 |
| 20260510104558 | 56 | 248 | 0.0 | 0.0 | 0.00 | 0.01 | 0.00 | 51 | 1018.7 |
| 20260510104100 | 56 | 311 | 0.0 | 0.0 | 0.00 | 0.01 | 0.00 | 51 | 1018.5 |
| 20260510103557 | 56 | 322 | 0.0 | 0.0 | 0.00 | 0.01 | 0.00 | 51 | 1018.5 |
| 20260510103058 | 56 | 341 | 0.0 | 2.6 | 0.00 | 0.01 | 0.00 | 51 | 1018.3 |
| 20260510102554 | 56 | 16 | 0.0 | 2.6 | 0.00 | 0.01 | 0.00 | 51 | 1018.2 |
| 20260510102056 | 57 | 300 | 0.0 | 0.0 | 0.00 | 0.01 | 0.00 | 51 | 1018.1 |
| 20260510101553 | 57 | 295 | 0.0 | 0.9 | 0.00 | 0.01 | 0.00 | 50 | 1018.0 |
| 20260510101049 | 57 | 309 | 0.0 | 8.7 | 0.00 | 0.01 | 0.00 | 50 | 1017.8 |
| 20260510100549 | 57 | 335 | 0.0 | 8.7 | 0.00 | 0.01 | 0.00 | 49 | 1017.7 |
| 20260510100048 | 58 | 319 | 0.0 | 1.7 | 0.00 | 0.01 | 0.00 | 50 | 1017.7 |
| 20260510095547 | 58 | 70 | 0.0 | 4.3 | 0.00 | 0.01 | 0.00 | 50 | 1017.7 |
| 20260510095046 | 58 | 300 | 0.9 | 4.3 | 0.00 | 0.01 | 0.00 | 50 | 1017.5 |
| 20260510094547 | 58 | 30 | 0.0 | 1.7 | 0.00 | 0.01 | 0.00 | 50 | 1017.5 |
| 20260510094044 | 58 | 330 | 0.0 | 0.0 | 0.00 | 0.01 | 0.00 | 51 | 1017.6 |
| 20260510093543 | 58 | 127 | 0.0 | 5.2 | 0.00 | 0.01 | 0.00 | 51 | 1017.4 |
| 20260510093043 | 59 | 93 | 0.0 | 3.5 | 0.00 | 0.01 | 0.00 | 53 | 1017.3 |
| 20260510092542 | 59 | 357 | 0.0 | 7.0 | 0.00 | 0.01 | 0.00 | 52 | 1017.3 |
| 20260510092041 | 59 | 117 | 0.0 | 0.0 | 0.00 | 0.01 | 0.00 | 53 | 1017.1 |
| 20260510091540 | 59 | 54 | 0.0 | 0.9 | 0.00 | 0.01 | 0.00 | 53 | 1017.1 |
| 20260510091040 | 59 | 89 | 0.0 | 6.1 | 0.00 | 0.01 | 0.00 | 54 | 1017.1 |
| 20260510090539 | 59 | 336 | 0.0 | 6.1 | 0.00 | 0.01 | 0.00 | 54 | 1017.1 |
| 20260510090038 | 59 | 301 | 0.0 | 7.8 | 0.00 | 0.01 | 0.00 | 55 | 1017.1 |
| 20260510085540 | 60 | 133 | 0.9 | 7.8 | 0.00 | 0.01 | 0.00 | 56 | 1016.9 |
| 20260510085038 | 60 | 315 | 0.0 | 4.3 | 0.00 | 0.01 | 0.00 | 58 | 1017.0 |
| 20260510084535 | 60 | 40 | 0.0 | 4.3 | 0.00 | 0.01 | 0.00 | 59 | 1016.9 |
| 20260510084035 | 60 | 342 | 0.0 | 5.2 | 0.00 | 0.01 | 0.00 | 60 | 1016.9 |
| 20260510083535 | 60 | 330 | 0.0 | 5.2 | 0.00 | 0.01 | 0.00 | 60 | 1016.9 |
| 20260510083034 | 60 | 326 | 0.0 | 6.1 | 0.00 | 0.01 | 0.00 | 60 | 1016.8 |
| 20260510082532 | 60 | 100 | 0.0 | 6.1 | 0.00 | 0.01 | 0.00 | 61 | 1016.7 |
| 20260510082031 | 60 | 16 | 0.0 | 6.1 | 0.00 | 0.01 | 0.00 | 63 | 1016.6 |
| 20260510081538 | 60 | 342 | 0.0 | 4.3 | 0.00 | 0.01 | 0.00 | 65 | 1016.4 |
| 20260510081031 | 60 | 295 | 0.0 | 0.0 | 0.00 | 0.01 | 0.00 | 66 | 1016.3 |
| 20260510080532 | 60 | 339 | 0.0 | 0.9 | 0.00 | 0.01 | 0.00 | 66 | 1016.4 |
| 20260510080030 | 60 | 342 | 0.0 | 0.9 | 0.00 | 0.01 | 0.00 | 68 | 1016.5 |
| 20260510075529 | 60 | 252 | 0.0 | 0.0 | 0.00 | 0.01 | 0.00 | 68 | 1016.4 |
| 20260510075028 | 60 | 279 | 0.0 | 2.6 | 0.00 | 0.01 | 0.00 | 69 | 1016.2 |
| 20260510074527 | 60 | 347 | 0.0 | 2.6 | 0.00 | 0.01 | 0.00 | 69 | 1016.1 |
| 20260510074027 | 60 | 300 | 0.0 | 0.0 | 0.00 | 0.01 | 0.00 | 70 | 1015.8 |
| 20260510073525 | 60 | 300 | 0.0 | 0.0 | 0.00 | 0.01 | 0.00 | 69 | 1015.7 |
| 20260510073031 | 61 | 288 | 0.0 | 0.0 | 0.00 | 0.01 | 0.00 | 68 | 1015.9 |
| 20260510072522 | 61 | 288 | 0.0 | 0.0 | 0.00 | 0.01 | 0.00 | 67 | 1015.8 |
| 20260510072021 | 61 | 288 | 0.0 | 0.0 | 0.00 | 0.01 | 0.00 | 67 | 1015.6 |
| 20260510071520 | 61 | 132 | 0.0 | 0.0 | 0.00 | 0.01 | 0.00 | 66 | 1015.6 |
| 20260510071019 | 61 | 131 | 0.0 | 0.0 | 0.00 | 0.01 | 0.00 | 66 | 1015.5 |
| 20260510070519 | 61 | 131 | 0.0 | 0.0 | 0.00 | 0.01 | 0.00 | 66 | 1015.4 |
| 20260510070019 | 61 | 131 | 0.0 | 0.0 | 0.00 | 0.01 | 0.00 | 65 | 1015.3 |
| 20260510065518 | 61 | 131 | 0.0 | 0.0 | 0.00 | 0.01 | 0.00 | 65 | 1015.3 |
| 20260510065020 | 61 | 131 | 0.0 | 0.0 | 0.00 | 0.01 | 0.00 | 64 | 1015.2 |
| 20260510064516 | 62 | 131 | 0.0 | 0.0 | 0.00 | 0.01 | 0.00 | 64 | 1015.2 |
| 20260510064018 | 62 | 131 | 0.0 | 0.0 | 0.00 | 0.01 | 0.00 | 64 | 1015.2 |
| 20260510063517 | 62 | 131 | 0.0 | 0.0 | 0.00 | 0.01 | 0.00 | 65 | 1015.0 |
| 20260510063015 | 62 | 131 | 0.0 | 0.0 | 0.00 | 0.01 | 0.00 | 65 | 1014.9 |
| 20260510062514 | 62 | 131 | 0.0 | 0.0 | 0.00 | 0.01 | 0.00 | 63 | 1015.1 |
| 20260510062012 | 62 | 131 | 0.0 | 0.0 | 0.00 | 0.01 | 0.00 | 63 | 1015.2 |
| 20260510061512 | 63 | 131 | 0.0 | 0.0 | 0.00 | 0.01 | 0.00 | 61 | 1015.3 |
| 20260510061011 | 63 | 131 | 0.0 | 0.0 | 0.00 | 0.01 | 0.00 | 61 | 1015.3 |
| 20260510060510 | 63 | 131 | 0.0 | 0.0 | 0.00 | 0.01 | 0.00 | 61 | 1015.3 |
| 20260510060017 | 63 | 131 | 0.0 | 0.0 | 0.00 | 0.01 | 0.00 | 61 | 1015.3 |
| 20260510055508 | 63 | 131 | 0.0 | 0.0 | 0.00 | 0.02 | 0.00 | 60 | 1015.1 |
| 20260510055007 | 64 | 95 | 0.0 | 0.0 | 0.00 | 0.02 | 0.00 | 60 | 1014.9 |
| 20260510054505 | 64 | 94 | 0.0 | 0.0 | 0.00 | 0.02 | 0.00 | 60 | 1014.9 |
| 20260510054003 | 65 | 94 | 0.0 | 0.0 | 0.00 | 0.02 | 0.00 | 58 | 1014.8 |
| 20260510053504 | 65 | 95 | 0.0 | 0.0 | 0.00 | 0.02 | 0.00 | 57 | 1014.8 |
| 20260510053001 | 66 | 95 | 0.0 | 0.0 | 0.00 | 0.02 | 0.00 | 53 | 1014.8 |
| 20260510052559 | 66 | 270 | 0.0 | 0.0 | 0.00 | 0.02 | 0.00 | 53 | 1014.9 |
| 20260510052059 | 66 | 270 | 0.0 | 0.0 | 0.00 | 0.02 | 0.00 | 51 | 1015.0 |
| 20260510051559 | 66 | 84 | 0.0 | 0.0 | 0.00 | 0.02 | 0.00 | 51 | 1014.8 |
| 20260510051057 | 66 | 84 | 0.0 | 0.0 | 0.00 | 0.02 | 0.00 | 51 | 1014.5 |
| 20260510050557 | 66 | 120 | 0.0 | 0.0 | 0.00 | 0.02 | 0.00 | 51 | 1014.2 |
| 20260510050055 | 66 | 93 | 0.0 | 0.0 | 0.00 | 0.02 | 0.00 | 52 | 1013.9 |
| 20260510045554 | 66 | 94 | 0.0 | 0.0 | 0.00 | 0.02 | 0.02 | 51 | 1013.8 |
| 20260510045053 | 66 | 94 | 0.0 | 0.0 | 0.00 | 0.02 | 0.02 | 51 | 1013.5 |
| 20260510044553 | 67 | 298 | 0.0 | 0.0 | 0.00 | 0.02 | 0.02 | 51 | 1013.3 |
| 20260510044051 | 67 | 72 | 0.0 | 0.0 | 0.00 | 0.02 | 0.02 | 52 | 1013.3 |
| 20260510043552 | 67 | 295 | 0.0 | 3.5 | 0.00 | 0.02 | 0.02 | 52 | 1013.1 |
| 20260510043105 | 67 | 354 | 0.0 | 3.5 | 0.00 | 0.02 | 0.02 | 53 | 1012.9 |
| 20260510042549 | 67 | 109 | 0.0 | 5.2 | 0.00 | 0.02 | 0.02 | 56 | 1012.8 |
| 20260510042049 | 67 | 338 | 0.0 | 5.2 | 0.00 | 0.02 | 0.02 | 57 | 1012.8 |
| 20260510041550 | 67 | 335 | 0.0 | 7.0 | 0.00 | 0.02 | 0.02 | 58 | 1012.8 |
| 20260510041049 | 67 | 53 | 0.0 | 7.0 | 0.00 | 0.02 | 0.02 | 59 | 1012.8 |
| 20260510040552 | 67 | 331 | 0.9 | 6.1 | 0.00 | 0.02 | 0.02 | 59 | 1012.9 |
| 20260510040053 | 66 | 57 | 0.0 | 0.0 | 0.00 | 0.02 | 0.02 | 62 | 1012.7 |
| 20260510035549 | 66 | 335 | 0.0 | 0.0 | 0.00 | 0.02 | 0.02 | 62 | 1012.7 |
| 20260510035050 | 66 | 335 | 0.0 | 0.0 | 0.00 | 0.02 | 0.02 | 64 | 1012.7 |
| 20260510034548 | 65 | 91 | 0.0 | 0.0 | 0.00 | 0.02 | 0.02 | 65 | 1012.7 |
| 20260510034048 | 65 | 280 | 0.0 | 0.0 | 0.00 | 0.02 | 0.02 | 66 | 1012.6 |
| 20260510033548 | 66 | 300 | 0.0 | 0.0 | 0.00 | 0.02 | 0.02 | 65 | 1012.6 |
| 20260510033052 | 67 | 75 | 0.0 | 0.0 | 0.00 | 0.02 | 0.02 | 61 | 1012.7 |
| 20260510032548 | 68 | 308 | 0.0 | 0.0 | 0.00 | 0.02 | 0.02 | 58 | 1012.9 |
| 20260510032046 | 68 | 304 | 0.0 | 0.0 | 0.00 | 0.02 | 0.02 | 56 | 1012.9 |
| 20260510031553 | 67 | 304 | 0.0 | 0.0 | 0.00 | 0.02 | 0.02 | 57 | 1012.6 |
| 20260510031044 | 67 | 304 | 0.0 | 0.0 | 0.00 | 0.02 | 0.02 | 58 | 1012.6 |
| 20260510030545 | 67 | 304 | 0.0 | 0.0 | 0.00 | 0.02 | 0.02 | 60 | 1012.5 |
| 20260510030042 | 68 | 304 | 0.0 | 0.0 | 0.00 | 0.02 | 0.02 | 58 | 1012.3 |
| 20260510025541 | 68 | 304 | 0.0 | 0.0 | 0.00 | 0.02 | 0.02 | 58 | 1012.2 |
| 20260510025042 | 68 | 304 | 0.0 | 0.0 | 0.00 | 0.02 | 0.02 | 56 | 1011.9 |
| 20260510024541 | 68 | 304 | 0.0 | 0.0 | 0.00 | 0.02 | 0.02 | 55 | 1011.9 |
| 20260510024039 | 69 | 304 | 0.0 | 0.0 | 0.00 | 0.02 | 0.02 | 54 | 1011.8 |
| 20260510023539 | 69 | 304 | 0.0 | 0.0 | 0.00 | 0.02 | 0.02 | 54 | 1011.7 |
| 20260510023037 | 69 | 304 | 0.0 | 0.0 | 0.00 | 0.02 | 0.02 | 53 | 1011.6 |
| 20260510022536 | 70 | 304 | 0.0 | 0.0 | 0.00 | 0.02 | 0.02 | 52 | 1011.4 |
| 20260510022035 | 70 | 304 | 0.0 | 0.0 | 0.00 | 0.02 | 0.02 | 51 | 1011.3 |
| 20260510021538 | 70 | 304 | 0.0 | 0.0 | 0.00 | 0.02 | 0.02 | 50 | 1011.2 |
| 20260510021033 | 71 | 304 | 0.0 | 0.0 | 0.00 | 0.02 | 0.02 | 50 | 1011.1 |
| 20260510020533 | 71 | 304 | 0.0 | 0.0 | 0.00 | 0.02 | 0.02 | 49 | 1011.0 |
| 20260510020034 | 71 | 304 | 0.0 | 0.0 | 0.00 | 0.02 | 0.02 | 49 | 1010.9 |
| 20260510015532 | 71 | 314 | 0.0 | 0.0 | 0.00 | 0.02 | 0.02 | 49 | 1010.9 |
| 20260510015035 | 71 | 287 | 0.0 | 0.0 | 0.00 | 0.02 | 0.02 | 49 | 1010.9 |
| 20260510014533 | 71 | 295 | 0.0 | 0.9 | 0.00 | 0.02 | 0.02 | 49 | 1010.8 |
| 20260510014034 | 72 | 298 | 0.0 | 0.9 | 0.00 | 0.02 | 0.02 | 48 | 1010.7 |
| 20260510013531 | 72 | 295 | 0.0 | 5.2 | 0.00 | 0.02 | 0.02 | 48 | 1010.7 |
| 20260510013029 | 72 | 335 | 0.0 | 7.0 | 0.00 | 0.02 | 0.02 | 48 | 1010.6 |
| 20260510012529 | 72 | 322 | 0.0 | 0.9 | 0.00 | 0.02 | 0.02 | 48 | 1010.5 |
| 20260510012030 | 72 | 276 | 0.0 | 0.0 | 0.00 | 0.02 | 0.02 | 49 | 1010.3 |
| 20260510011530 | 72 | 276 | 0.0 | 0.0 | 0.00 | 0.02 | 0.02 | 47 | 1010.3 |
| 20260510011029 | 73 | 282 | 0.0 | 0.0 | 0.00 | 0.02 | 0.02 | 47 | 1010.2 |
| 20260510010528 | 73 | 72 | 0.0 | 0.0 | 0.00 | 0.02 | 0.02 | 47 | 1010.2 |
| 20260510010028 | 73 | 315 | 0.0 | 0.0 | 0.00 | 0.02 | 0.02 | 46 | 1010.2 |
| 20260510005529 | 74 | 297 | 0.0 | 5.2 | 0.00 | 0.02 | 0.02 | 45 | 1010.1 |
| 20260510005030 | 74 | 313 | 0.9 | 5.2 | 0.00 | 0.02 | 0.02 | 45 | 1010.0 |
| 20260510004527 | 75 | 288 | 0.0 | 0.0 | 0.00 | 0.02 | 0.02 | 44 | 1009.8 |
| 20260510004027 | 75 | 262 | 0.0 | 0.0 | 0.00 | 0.02 | 0.02 | 44 | 1009.8 |
| 20260510003527 | 75 | 358 | 0.0 | 8.7 | 0.00 | 0.02 | 0.02 | 44 | 1009.7 |
| 20260510003028 | 76 | 281 | 0.0 | 8.7 | 0.00 | 0.02 | 0.02 | 43 | 1009.7 |
| 20260510002526 | 76 | 311 | 0.0 | 5.2 | 0.00 | 0.02 | 0.02 | 43 | 1009.5 |
| 20260510002026 | 76 | 26 | 0.0 | 7.8 | 0.00 | 0.02 | 0.02 | 43 | 1009.3 |
| 20260510001528 | 76 | 323 | 0.0 | 7.8 | 0.00 | 0.02 | 0.02 | 43 | 1009.3 |
| 20260510001026 | 76 | 300 | 0.9 | 7.0 | 0.00 | 0.02 | 0.02 | 43 | 1009.3 |
| 20260510000527 | 76 | 260 | 0.0 | 7.0 | 0.00 | 0.02 | 0.02 | 42 | 1009.2 |
| 20260510000025 | 76 | 235 | 0.0 | 7.0 | 0.00 | 0.02 | 0.02 | 42 | 1009.1 |
| 20260509235525 | 77 | 297 | 1.7 | 7.0 | 0.00 | 0.02 | 0.02 | 41 | 1009.0 |
| 20260509235025 | 77 | 347 | 0.0 | 6.1 | 0.00 | 0.02 | 0.02 | 41 | 1008.9 |
| 20260509234532 | 77 | 293 | 0.0 | 11.3 | 0.00 | 0.02 | 0.02 | 41 | 1008.9 |
| 20260509234026 | 77 | 327 | 2.6 | 11.3 | 0.00 | 0.02 | 0.02 | 40 | 1008.8 |
| 20260509233524 | 78 | 240 | 0.0 | 11.3 | 0.00 | 0.02 | 0.02 | 39 | 1009.0 |
| 20260509233025 | 78 | 322 | 2.6 | 12.2 | 0.00 | 0.02 | 0.02 | 38 | 1009.0 |
| 20260509232524 | 79 | 312 | 5.2 | 12.2 | 0.00 | 0.02 | 0.02 | 36 | 1009.0 |
| 20260509232024 | 80 | 245 | 0.9 | 5.2 | 0.00 | 0.02 | 0.02 | 35 | 1008.8 |
| 20260509231524 | 81 | 277 | 0.0 | 6.1 | 0.00 | 0.02 | 0.02 | 34 | 1008.4 |